Weather in Kedainiai

Lithuania     55˚17′17″N   23˚58′15″E
temp.,
°C
wind,
m/s
gust,
m/s
humid.,
%
clouds,
%
prec.,
mm/h
press.,
hPa
HPBL,
m
29 november, sun
sun2923:00+1˚ene589099 0.3 1023617
02:00−1˚ne488864 0.3 1023359
05:00ne588769 0.0 1024380
08:00+1˚ne488665 0.0 1024611
11:00+1˚ne577893 0.0 1024712
14:00+1˚nne467785 0.0 1023766
17:00+1˚nne3781100 0.1 1022581
20:00n4795100 0.3 1022480
30 november, mon
mon3023:00−1˚n369594 0.1 1021341
02:00−1˚nnw349490 0.3 1021285
05:00−1˚nnw239483 0.1 1021246
08:00−2˚w229389 0.1 102194
11:00−1˚sw3486100 0.0 1021428
14:00sw468898 0.1 1022500
17:00−1˚sw3797100 0.4 1022379
20:00sw489499 0.8 1022447
1 december, tue
tue123:00−1˚sw5109079 0.0 1023350
02:00−2˚ssw5109057 0.0 1023315
05:00−2˚ssw59926 0.0 1024318
08:00−2˚ssw479232 0.0 1025276
11:00−1˚s478776 0.0 1026281
14:00s478271 0.0 1027430
17:00−2˚sse368870 0.0 1028156
20:00−2˚sse378880 0.0 1030221
2 december, wed
wed223:00−3˚sse378960 0.0 1030230
02:00−3˚se358966 0.0 1031171
05:00−3˚se358982 0.0 1030159
08:00−3˚se258981 0.0 1030176
11:00−2˚se368184 0.0 1030290
14:00−1˚ese357868 0.0 1029331
17:00−3˚ese3688100 0.0 1028189
20:00−3˚ese379297 0.0 1027220
3 december, thu
thu323:00−3˚ese369589 0.0 1026206
02:00−1˚ese269594 0.1 1025223
05:00−1˚se3790100 0.0 1024310
08:00−1˚se4792100 0.1 1023388
11:00−1˚se478996 0.0 1023407
14:00se478891 0.1 1022454
17:00−2˚se499485 0.0 1022323
20:00−1˚se599092 0.0 1021643